[[{"header":{"parameterUnit":"m.s-1","parameterCategory":1,"la1":30.2991,"la2":30.254,"lo1":-89.0895,"lo2":-89.0444,"dy":0.0017,"dx":0.0017,"nx":28,"ny":28,"refTime":"2024-06-21T03:00:00:Z","depth":0,"parameterNumber":2,"parameterNumberName":"U-component_of_WINDS"},"data":[0,0,0,0,0,0,0,0,0,0,0,0,0,0,0,0,0,0,0,0,0,0,0,0,0,0,0,0,0,0,0,0,0,0,0,0,0,0,0,0,0,0,0,0,0,0,0,0,0,0,0,0,0,0,0,0,0,0,-5.1757,-5.1758,0,-5.1795,-5.1795,-5.1795,-5.1696,-5.1693,-5.1689,-5.1687,-5.1726,-5.173,-5.1734,0,0,0,0,0,0,0,0,0,0,0,0,0,-5.1604,-5.1607,-5.1757,-5.1758,-5.1758,-5.1794,-5.1795,-5.1795,-5.1696,-5.1692,-5.1689,-5.1685,-5.1725,-5.1729,-5.1734,0,0,0,0,0,0,0,0,0,0,0,0,0,-5.1659,-5.1608,-5.1757,-5.1713,-5.1709,-5.1794,-5.1795,-5.1796,-5.1697,-5.1692,-5.1688,-5.1683,-5.1723,-5.1729,-5.1735,-5.1864,0,0,-5.1753,-5.1755,0,0,0,0,0,0,0,0,-5.1656,-5.1664,-5.1719,-5.1716,-5.1712,-5.1736,-5.1755,-5.1819,-5.1698,-5.1702,-5.1686,-5.1681,-5.1733,-5.1738,-5.1755,-5.1866,-5.1868,-5.1753,-5.1757,-5.1759,-5.1761,0,0,0,0,0,0,0,-5.1652,-5.1662,-5.1772,-5.172,-5.1716,-5.1693,-5.1695,-5.1767,-5.1743,-5.1701,-5.1694,-5.17,-5.173,-5.175,-5.1755,-5.1868,-5.1753,-5.1758,-5.1762,-5.1764,-5.2091,-5.2096,0,0,0,0,0,0,-5.1654,-5.166,-5.1771,-5.1773,-5.1672,-5.1699,-5.1702,-5.1733,-5.1742,-5.1739,-5.1704,-5.1695,-5.1742,-5.1748,-5.1756,-5.191,-5.1759,-5.1765,-5.1768,-5.2086,-5.2092,-5.2098,0,0,0,0,0,0,-5.1651,-5.1664,-5.1769,-5.1715,-5.1726,-5.1707,-5.1742,-5.1736,-5.1755,-5.1744,-5.1739,-5.1727,-5.1738,-5.1748,-5.1839,-5.191,-5.1768,-5.1773,-5.208,-5.2088,-5.2095,-5.2218,0,0,0,0,0,0,-5.1647,-5.1664,-5.1712,-5.1716,-5.1729,-5.185,-5.1746,-5.174,-5.1765,-5.1754,-5.1765,-5.1762,-5.1735,-5.1831,-5.1845,-5.1915,-5.1778,-5.2073,-5.2084,-5.2093,-5.2207,-5.2229,-5.2247,0,0,0,0,0,-5.1642,-5.1745,-5.1715,-5.1729,-5.1789,-5.1855,-5.1862,-5.1829,-5.1772,-5.182,-5.1814,-5.1762,-5.19,-5.1841,-5.1856,-5.1929,-5.2069,-5.2081,-5.2092,-5.2198,-5.2225,-5.2247,0,0,0,0,0,0,-5.1748,-5.1744,-5.1711,-5.1818,-5.1838,-5.1838,-5.1897,-5.1857,-5.1893,-5.1881,-5.1839,-5.1842,-5.1941,-5.1945,-5.1878,-5.2057,-5.1975,-5.199,-5.2051,-5.2076,-5.2095,-5.2092,-5.1782,0,0,0,0,0,-5.1785,-5.1838,-5.1831,-5.1927,-5.1938,-5.1917,-5.1944,-5.1917,-5.1936,-5.1943,-5.1943,-5.1963,-5.2011,-5.2044,-5.2087,-5.2208,-5.221,-5.2267,-5.2287,-5.2303,-5.2316,-5.2382,-5.2408,-5.2136,-5.2136,-5.2135,0,0,-5.1859,-5.1864,-5.1899,-5.1949,-5.196,-5.2017,-5.1924,-5.1988,-5.203,-5.1953,-5.2038,-5.204,-5.206,-5.2167,-5.2214,-5.2173,-5.2392,-5.2318,-5.2331,-5.2335,-5.2397,-5.2423,-5.2446,-5.2144,-5.2142,-5.2141,0,0,-5.2025,-5.2033,-5.2114,-5.2129,-5.2148,-5.2134,-5.2154,-5.2161,-5.2159,-5.2245,-5.2189,-5.2239,-5.2323,-5.234,-5.236,-5.2537,-5.2491,-5.2553,-5.2656,-5.2721,-5.2742,-5.2761,-5.2825,-5.2848,-5.2566,-5.2566,-5.2567,0,-5.2115,-5.2198,-5.2161,-5.223,-5.2254,-5.2188,-5.2271,-5.2287,-5.232,-5.2339,-5.2292,-5.2397,-5.2406,-5.2517,-5.2561,-5.2579,-5.2601,-5.255,-5.2742,-5.2761,-5.2778,-5.2838,-5.2862,-5.2574,-5.2573,-5.2572,-5.2571,0,-5.2309,-5.2367,-5.2431,-5.2465,-5.2497,-5.2572,-5.2549,-5.2585,-5.2557,-5.2549,-5.2639,-5.2648,-5.2693,-5.2718,-5.269,-5.2826,-5.28,-5.2749,-5.2665,-5.2812,-5.2868,-5.2891,-5.2584,-5.2581,-5.2579,-5.2577,0,0,-5.2538,-5.2554,-5.2578,-5.2594,-5.2613,-5.2658,-5.2732,-5.2777,-5.2809,-5.2836,-5.2898,-5.2972,-5.2926,-5.2948,-5.2923,-5.298,-5.3122,-5.2922,-5.2922,-5.2959,-5.3274,-5.3312,-5.3339,-5.3093,-5.3097,-5.31,-5.3272,0,-5.2702,-5.2827,-5.2799,-5.2923,-5.2978,-5.2919,-5.2984,-5.3003,-5.2999,-5.3046,-5.3041,-5.3094,-5.3028,-5.3042,-5.3097,-5.3093,-5.3184,-5.308,-5.315,-5.3153,-5.3146,-5.3368,-5.3407,-5.3569,-5.3294,-5.3298,-5.33,0,-5.2907,-5.2943,-5.3073,-5.3086,-5.3108,-5.3166,-5.3206,-5.3252,-5.3274,-5.3267,-5.3295,-5.3259,-5.3335,-5.3252,-5.3356,-5.3287,-5.3314,-5.3318,-5.3323,-5.3327,-5.3235,-5.3378,-5.362,-5.3644,-5.3335,-5.3332,-5.3329,0,-5.3062,-5.3143,-5.3231,-5.3247,-5.3264,-5.3307,-5.3316,-5.3333,-5.3363,-5.3399,-5.3419,-5.3463,-5.3488,-5.3524,-5.3502,-5.3444,-5.3611,-5.3526,-5.3608,-5.3609,-5.3644,-5.3642,-5.3893,-5.3664,-5.3663,-5.3663,-5.3662,0,-5.3247,-5.3329,-5.3301,-5.3356,-5.3447,-5.3415,-5.3507,-5.351,-5.3527,-5.3582,-5.3534,-5.3587,-5.3556,-5.3608,-5.3592,-5.3681,-5.3693,-5.369,-5.3684,-5.3694,-5.3694,-5.371,-5.3698,-5.3669,-5.3668,-5.3667,-5.3665,0,-5.3433,-5.3418,-5.3511,-5.3521,-5.3526,-5.3593,-5.3601,-5.3653,-5.3647,-5.3717,-5.3732,-5.3722,-5.3781,-5.3763,-5.3826,-5.3816,-5.393,-5.391,-5.3922,-5.3917,-5.3999,-5.3992,-5.4269,-5.4304,-5.4053,-5.4055,-5.4057,0,-5.3551,-5.3613,-5.3631,-5.3664,-5.3677,-5.3732,-5.3763,-5.3735,-5.377,-5.3802,-5.3851,-5.3905,-5.3947,-5.4044,-5.4042,-5.4091,-5.4072,-5.4167,-5.4079,-5.4088,-5.4074,-5.407,-5.4077,-5.4183,-5.4186,-5.4188,-5.419,0,-5.3762,-5.3753,-5.3798,-5.3843,-5.3882,-5.3916,-5.3945,-5.3976,-5.3951,-5.3993,-5.4052,-5.4085,-5.4151,-5.4206,-5.4251,-5.4262,-5.4223,-5.4218,-5.424,-5.4249,-5.4253,-5.4252,-5.3968,-5.4211,-5.4209,-5.4208,-5.4207,-5.4206,-5.3918,-5.3971,-5.3992,-5.4046,-5.4066,-5.4096,-5.4146,-5.4146,-5.4195,-5.4246,-5.4228,-5.4297,-5.4321,-5.4378,-5.4396,-5.445,-5.4414,-5.4445,-5.4453,-5.4461,-5.4471,-5.4246,-5.4458,-5.4458,-5.4457,-5.4457,-5.4456,0,-5.4126,-5.4138,-5.4188,-5.4231,-5.4275,-5.4235,-5.4267,-5.4306,-5.4367,-5.4393,-5.4436,-5.4506,-5.4561,-5.4566,-5.4617,-5.466,-5.4644,-5.4675,-5.4671,-5.4674,-5.45,-5.4476,-5.4687,-5.4687,-5.4687,-5.4687,-5.4687,-5.4687,-5.4239,-5.4328,-5.4322,-5.4421,-5.4432,-5.4499,-5.4521,-5.4549,-5.457,-5.465,-5.4696,-5.4699,-5.4717,-5.4771,-5.482,-5.482,-5.4841,-5.4879,-5.4873,-5.4709,-5.4686,-5.4664,-5.4642,-5.4884,-5.4884,-5.5042,-5.5043,-5.5045]},{"header":{"parameterUnit":"m.s-1","parameterCategory":1,"la1":30.2991,"la2":30.254,"lo1":-89.0895,"lo2":-89.0444,"dy":0.0017,"dx":0.0017,"nx":28,"ny":28,"refTime":"2024-06-21T03:00:00:Z","depth":0,"parameterNumber":3,"parameterNumberName":"V-component_of_WINDS"},"data":[0,0,0,0,0,0,0,0,0,0,0,0,0,0,0,0,0,0,0,0,0,0,0,0,0,0,0,0,0,0,0,0,0,0,0,0,0,0,0,0,0,0,0,0,0,0,0,0,0,0,0,0,0,0,0,0,0,0,1.1507,1.1506,0,1.1482,1.1482,1.1481,1.1511,1.1512,1.1513,1.1514,1.1483,1.1481,1.1479,0,0,0,0,0,0,0,0,0,0,0,0,0,1.1576,1.1574,1.1507,1.1506,1.1506,1.1482,1.1482,1.1481,1.151,1.1512,1.1513,1.1514,1.1483,1.1481,1.1479,0,0,0,0,0,0,0,0,0,0,0,0,0,1.1548,1.1574,1.1507,1.1518,1.1519,1.1482,1.1482,1.1481,1.151,1.1512,1.1513,1.1515,1.1484,1.1481,1.1478,1.1428,0,0,1.147,1.1469,0,0,0,0,0,0,0,0,1.1549,1.1545,1.1517,1.1517,1.1518,1.1501,1.1494,1.1463,1.151,1.1513,1.1514,1.1516,1.1487,1.1484,1.1476,1.1426,1.1425,1.147,1.1468,1.1467,1.1466,0,0,0,0,0,0,0,1.1551,1.1546,1.1497,1.1516,1.1517,1.1523,1.1521,1.1489,1.1491,1.1513,1.1515,1.1512,1.1488,1.1478,1.1475,1.1425,1.147,1.1467,1.1466,1.1464,1.1333,1.1331,0,0,0,0,0,0,1.1552,1.1548,1.1498,1.1496,1.1538,1.152,1.1518,1.1505,1.1491,1.1491,1.1511,1.1514,1.1482,1.1478,1.1474,1.1414,1.1467,1.1464,1.1463,1.1335,1.1333,1.1331,0,0,0,0,0,0,1.1554,1.1548,1.1499,1.1522,1.1517,1.1517,1.1502,1.1503,1.1494,1.149,1.149,1.1501,1.1483,1.1478,1.144,1.1413,1.1463,1.146,1.1337,1.1334,1.1332,1.1292,0,0,0,0,0,0,1.1556,1.1548,1.1529,1.1522,1.1515,1.1465,1.1501,1.1502,1.149,1.1493,1.148,1.148,1.1484,1.1444,1.1437,1.141,1.1458,1.1339,1.1336,1.1332,1.1296,1.1288,1.1282,0,0,0,0,0,1.1558,1.1518,1.1528,1.1522,1.1492,1.1464,1.146,1.1467,1.1488,1.1468,1.1466,1.148,1.1418,1.1439,1.1432,1.1404,1.1341,1.1337,1.1333,1.1299,1.129,1.1282,0,0,0,0,0,0,1.152,1.1517,1.1528,1.1485,1.1475,1.1469,1.1445,1.1458,1.144,1.1443,1.1452,1.1449,1.1408,1.1403,1.1427,1.1355,1.1382,1.1377,1.1359,1.1351,1.1344,1.1345,1.1456,0,0,0,0,0,1.1507,1.1485,1.1484,1.1445,1.144,1.1443,1.1431,1.1438,1.1427,1.1422,1.1417,1.1404,1.1382,1.1366,1.1345,1.1296,1.1293,1.1273,1.1267,1.1261,1.1255,1.1229,1.1219,1.1317,1.1317,1.1317,0,0,1.1478,1.1475,1.146,1.1438,1.1431,1.1407,1.1439,1.1412,1.1394,1.1417,1.1381,1.1377,1.1363,1.132,1.13,1.1313,1.1228,1.1256,1.1252,1.1248,1.1223,1.1214,1.1206,1.1314,1.1315,1.1315,0,0,1.1415,1.141,1.1378,1.1371,1.1361,1.1364,1.1356,1.1349,1.1348,1.1312,1.1329,1.1308,1.1269,1.1258,1.1248,1.1183,1.1195,1.1176,1.1139,1.1113,1.1106,1.1099,1.1074,1.1066,1.1171,1.1171,1.1171,0,1.138,1.1346,1.1359,1.1332,1.1321,1.1344,1.1311,1.1303,1.1285,1.1277,1.1294,1.1246,1.1239,1.1193,1.1177,1.1169,1.1159,1.1176,1.1106,1.1099,1.1093,1.107,1.1061,1.1168,1.1169,1.1169,1.1169,0,1.1304,1.1281,1.1256,1.1241,1.1228,1.1197,1.1205,1.119,1.1199,1.12,1.1163,1.1156,1.1134,1.1124,1.1132,1.1079,1.1088,1.1105,1.1133,1.1081,1.106,1.1051,1.1165,1.1166,1.1167,1.1167,0,0,1.1212,1.1207,1.1197,1.1191,1.1183,1.1164,1.1135,1.1116,1.1103,1.1091,1.1065,1.1034,1.105,1.1039,1.1046,1.1023,1.0972,1.1043,1.1043,1.1029,1.0912,1.0898,1.0887,1.0981,1.098,1.0978,1.0913,0,1.1147,1.1098,1.111,1.1061,1.1039,1.1062,1.1037,1.1029,1.1029,1.101,1.1011,1.0987,1.1012,1.1005,1.0984,1.0982,1.0948,1.0988,1.0956,1.0954,1.0956,1.0876,1.086,1.0799,1.0905,1.0903,1.0902,0,1.1064,1.1051,1.1001,1.0997,1.0988,1.0966,1.0949,1.0932,1.0922,1.0925,1.0913,1.0925,1.0896,1.0926,1.0885,1.0911,1.09,1.0897,1.0895,1.089,1.0923,1.0867,1.0779,1.0769,1.0889,1.089,1.0891,0,1.1,1.097,1.0936,1.0931,1.0926,1.0909,1.0906,1.0899,1.0888,1.0873,1.0866,1.0848,1.0837,1.0822,1.0829,1.0851,1.0786,1.0817,1.0785,1.0785,1.0768,1.0768,1.0675,1.0764,1.0764,1.0764,1.0764,0,1.0925,1.0892,1.0908,1.0886,1.0851,1.0865,1.0829,1.0829,1.0823,1.0801,1.0821,1.0799,1.0811,1.079,1.0795,1.076,1.0755,1.0755,1.0756,1.0752,1.0751,1.0742,1.0745,1.0762,1.0762,1.0763,1.0763,0,1.0845,1.0855,1.0819,1.0819,1.0818,1.0792,1.0791,1.0771,1.0775,1.0747,1.0742,1.0747,1.0724,1.073,1.0704,1.0708,1.0663,1.067,1.0666,1.0667,1.0634,1.0636,1.0529,1.0515,1.0615,1.0615,1.0614,0,1.0796,1.0772,1.077,1.0758,1.0754,1.0734,1.0723,1.0737,1.0724,1.0714,1.0694,1.0674,1.0658,1.062,1.062,1.0601,1.0607,1.0571,1.0604,1.0601,1.0605,1.0605,1.0602,1.0564,1.0562,1.0562,1.0561,0,1.0706,1.0712,1.0696,1.0682,1.0669,1.0658,1.0649,1.0638,1.0651,1.0636,1.0614,1.0602,1.0577,1.0556,1.0539,1.0535,1.0549,1.0551,1.0542,1.0536,1.0534,1.0533,1.0646,1.0553,1.0553,1.0554,1.0554,1.0555,1.0638,1.0618,1.0615,1.0596,1.0592,1.0583,1.0564,1.0567,1.055,1.0532,1.0542,1.0516,1.0509,1.0488,1.0482,1.0461,1.0474,1.0462,1.0458,1.0454,1.045,1.054,1.0458,1.0458,1.0458,1.0459,1.0459,0,1.0548,1.0548,1.0531,1.0519,1.0504,1.0523,1.0514,1.05,1.0478,1.0472,1.0457,1.0431,1.0412,1.0412,1.0393,1.0377,1.0383,1.0371,1.0371,1.037,1.0439,1.0448,1.0366,1.0366,1.0366,1.0366,1.0366,1.0366,1.0499,1.0466,1.0473,1.0438,1.0437,1.0414,1.0407,1.0399,1.0394,1.0366,1.035,1.0352,1.0347,1.0329,1.0311,1.0312,1.0303,1.0288,1.0291,1.0356,1.0365,1.0373,1.0381,1.0287,1.0287,1.0223,1.0222,1.0222]}]]